owner,sensor,date,latitude,longitude,vertical_datum,wind_speed,wind_to_direction,wind_speed_of_gust,qcFlag 
LOOP,urn:ioos:station:wmo:lopl1:1,2012-10-01T00:03:00Z,28.8850,-90.0250,10.0,14.1,216.0,16.9,'11111222,11111222,11111222' 
LOOP,urn:ioos:station:wmo:lopl1:1,2012-10-01T00:18:00Z,28.8850,-90.0250,10.0,14.5,221.0,17.6,'11111222,11111222,11111222' 
LOOP,urn:ioos:station:wmo:lopl1:1,2012-10-01T00:33:00Z,28.8850,-90.0250,10.0,11.2,217.0,12.6,'11111222,11111222,11111222' 
LOOP,urn:ioos:station:wmo:lopl1:1,2012-10-01T00:48:00Z,28.8850,-90.0250,10.0,11.7,210.0,16.7,'11111222,11111222,11111222' 
LOOP,urn:ioos:station:wmo:lopl1:1,2012-10-01T01:03:00Z,28.8850,-90.0250,10.0,11.9,222.0,14.2,'11111222,11111222,11111222' 
LOOP,urn:ioos:station:wmo:lopl1:1,2012-10-01T01:18:00Z,28.8850,-90.0250,10.0,11.8,239.0,16.4,'11111222,11111222,11111222' 
LOOP,urn:ioos:station:wmo:lopl1:1,2012-10-01T01:33:00Z,28.8850,-90.0250,10.0,13.1,246.0,17.9,'11111222,11111222,11111222' 
LOOP,urn:ioos:station:wmo:lopl1:1,2012-10-01T01:48:00Z,28.8850,-90.0250,10.0,13.1,235.0,19.4,'11111222,11111222,11111222' 
LOOP,urn:ioos:station:wmo:lopl1:1,2012-10-01T02:03:00Z,28.8850,-90.0250,10.0,11.7,239.0,16.4,'11111222,11111222,11111222' 
LOOP,urn:ioos:station:wmo:lopl1:1,2012-10-01T02:23:00Z,28.8850,-90.0250,10.0,11.8,240.0,15.3,'11111222,11111222,11111222' 
LOOP,urn:ioos:station:wmo:lopl1:1,2012-10-01T02:38:00Z,28.8850,-90.0250,10.0,13.4,229.0,16.6,'11111222,11111222,11111222' 
LOOP,urn:ioos:station:wmo:lopl1:1,2012-10-01T02:53:00Z,28.8850,-90.0250,10.0,12.2,245.0,16.3,'11111222,11111222,11111222' 
LOOP,urn:ioos:station:wmo:lopl1:1,2012-10-01T03:08:00Z,28.8850,-90.0250,10.0,12.5,235.0,16.8,'11111222,11111222,11111222' 
LOOP,urn:ioos:station:wmo:lopl1:1,2012-10-01T03:23:00Z,28.8850,-90.0250,10.0,13.5,239.0,16.0,'11111222,11111222,11111222' 
LOOP,urn:ioos:station:wmo:lopl1:1,2012-10-01T03:38:00Z,28.8850,-90.0250,10.0,12.9,237.0,17.3,'11111222,11111222,11111222' 
LOOP,urn:ioos:station:wmo:lopl1:1,2012-10-01T03:53:00Z,28.8850,-90.0250,10.0,13.2,229.0,17.3,'11111222,11111222,11111222' 
LOOP,urn:ioos:station:wmo:lopl1:1,2012-10-01T04:08:00Z,28.8850,-90.0250,10.0,13.5,222.0,15.5,'11111222,11111222,11111222' 
LOOP,urn:ioos:station:wmo:lopl1:1,2012-10-01T04:23:00Z,28.8850,-90.0250,10.0,13.3,233.0,17.1,'11111222,11111222,11111222' 
LOOP,urn:ioos:station:wmo:lopl1:1,2012-10-01T04:38:00Z,28.8850,-90.0250,10.0,13.9,229.0,17.0,'11111222,11111222,11111222' 
LOOP,urn:ioos:station:wmo:lopl1:1,2012-10-01T04:53:00Z,28.8850,-90.0250,10.0,14.9,250.0,18.6,'11111222,11111222,11111222' 
LOOP,urn:ioos:station:wmo:lopl1:1,2012-10-01T05:09:00Z,28.8850,-90.0250,10.0,16.2,259.0,18.2,'11111222,11111222,11111222' 
LOOP,urn:ioos:station:wmo:lopl1:1,2012-10-01T05:24:00Z,28.8850,-90.0250,10.0,14.3,257.0,17.1,'11111222,11111222,11111222' 
LOOP,urn:ioos:station:wmo:lopl1:1,2012-10-01T05:39:00Z,28.8850,-90.0250,10.0,14.0,254.0,16.1,'11111222,11111222,11111222' 
LOOP,urn:ioos:station:wmo:lopl1:1,2012-10-01T05:54:00Z,28.8850,-90.0250,10.0,13.7,262.0,15.5,'11111222,11111222,11111222' 
LOOP,urn:ioos:station:wmo:lopl1:1,2012-10-01T06:09:00Z,28.8850,-90.0250,10.0,11.5,270.0,14.9,'11111222,11111222,11111222' 
LOOP,urn:ioos:station:wmo:lopl1:1,2012-10-01T06:24:00Z,28.8850,-90.0250,10.0,14.7,273.0,17.1,'11111222,11111222,11111222' 
LOOP,urn:ioos:station:wmo:lopl1:1,2012-10-01T06:39:00Z,28.8850,-90.0250,10.0,14.1,270.0,16.1,'11111222,11111222,11111222' 
LOOP,urn:ioos:station:wmo:lopl1:1,2012-10-01T06:54:00Z,28.8850,-90.0250,10.0,13.5,267.0,15.9,'11111222,11111222,11111222' 
LOOP,urn:ioos:station:wmo:lopl1:1,2012-10-01T07:14:00Z,28.8850,-90.0250,10.0,13.0,266.0,15.4,'11111222,11111222,11111222' 
LOOP,urn:ioos:station:wmo:lopl1:1,2012-10-01T07:29:00Z,28.8850,-90.0250,10.0,13.6,265.0,15.5,'11111222,11111222,11111222' 
LOOP,urn:ioos:station:wmo:lopl1:1,2012-10-01T07:44:00Z,28.8850,-90.0250,10.0,14.5,274.0,17.5,'11111222,11111222,11111222' 
LOOP,urn:ioos:station:wmo:lopl1:1,2012-10-01T07:59:00Z,28.8850,-90.0250,10.0,14.5,273.0,16.7,'11111222,11111222,11111222' 
LOOP,urn:ioos:station:wmo:lopl1:1,2012-10-01T08:14:00Z,28.8850,-90.0250,10.0,13.9,269.0,16.0,'11111222,11111222,11111222' 
LOOP,urn:ioos:station:wmo:lopl1:1,2012-10-01T08:29:00Z,28.8850,-90.0250,10.0,15.1,273.0,17.4,'11111222,11111222,11111222' 
LOOP,urn:ioos:station:wmo:lopl1:1,2012-10-01T08:44:00Z,28.8850,-90.0250,10.0,13.4,279.0,15.7,'11111222,11111222,11111222' 
LOOP,urn:ioos:station:wmo:lopl1:1,2012-10-01T08:59:00Z,28.8850,-90.0250,10.0,15.1,275.0,16.7,'11111222,11111222,11111222' 
LOOP,urn:ioos:station:wmo:lopl1:1,2012-10-01T09:14:00Z,28.8850,-90.0250,10.0,14.6,269.0,16.6,'11111222,11111222,11111222' 
LOOP,urn:ioos:station:wmo:lopl1:1,2012-10-01T09:29:00Z,28.8850,-90.0250,10.0,13.3,288.0,15.7,'11111222,11111222,11111222' 
LOOP,urn:ioos:station:wmo:lopl1:1,2012-10-01T09:44:00Z,28.8850,-90.0250,10.0,11.9,292.0,15.0,'11111222,11111222,11111222' 
LOOP,urn:ioos:station:wmo:lopl1:1,2012-10-01T09:59:00Z,28.8850,-90.0250,10.0,13.8,297.0,16.2,'11111222,11111222,11111222' 
LOOP,urn:ioos:station:wmo:lopl1:1,2012-10-01T10:14:00Z,28.8850,-90.0250,10.0,13.1,301.0,15.2,'11111222,11111222,11111222' 
LOOP,urn:ioos:station:wmo:lopl1:1,2012-10-01T10:29:00Z,28.8850,-90.0250,10.0,13.2,287.0,15.7,'11111222,11111222,11111222' 
LOOP,urn:ioos:station:wmo:lopl1:1,2012-10-01T10:44:00Z,28.8850,-90.0250,10.0,12.3,296.0,16.0,'11111222,11111222,11111222' 
LOOP,urn:ioos:station:wmo:lopl1:1,2012-10-01T10:59:00Z,28.8850,-90.0250,10.0,12.2,301.0,14.5,'11111222,11111222,11111222' 
LOOP,urn:ioos:station:wmo:lopl1:1,2012-10-01T11:14:00Z,28.8850,-90.0250,10.0,12.8,296.0,15.7,'11111222,11111222,11111222' 
LOOP,urn:ioos:station:wmo:lopl1:1,2012-10-01T11:29:00Z,28.8850,-90.0250,10.0,13.2,300.0,16.4,'11111222,11111222,11111222' 
LOOP,urn:ioos:station:wmo:lopl1:1,2012-10-01T11:44:00Z,28.8850,-90.0250,10.0,13.7,297.0,16.5,'11111222,11111222,11111222' 
LOOP,urn:ioos:station:wmo:lopl1:1,2012-10-01T11:59:00Z,28.8850,-90.0250,10.0,13.9,295.0,16.6,'11111222,11111222,11111222' 
LOOP,urn:ioos:station:wmo:lopl1:1,2012-10-01T12:14:00Z,28.8850,-90.0250,10.0,12.8,296.0,15.1,'11111222,11111222,11111222' 
LOOP,urn:ioos:station:wmo:lopl1:1,2012-10-01T12:29:00Z,28.8850,-90.0250,10.0,12.9,299.0,15.8,'11111222,11111222,11111222' 
LOOP,urn:ioos:station:wmo:lopl1:1,2012-10-01T12:44:00Z,28.8850,-90.0250,10.0,12.3,292.0,15.3,'11111222,11111222,11111222' 
LOOP,urn:ioos:station:wmo:lopl1:1,2012-10-01T12:59:00Z,28.8850,-90.0250,10.0,11.9,300.0,14.2,'11111222,11111222,11111222' 
LOOP,urn:ioos:station:wmo:lopl1:1,2012-10-01T13:14:00Z,28.8850,-90.0250,10.0,12.2,289.0,15.5,'11111222,11111222,11111222' 
LOOP,urn:ioos:station:wmo:lopl1:1,2012-10-01T13:29:00Z,28.8850,-90.0250,10.0,13.6,300.0,17.4,'11111222,11111222,11111222' 
LOOP,urn:ioos:station:wmo:lopl1:1,2012-10-01T13:44:00Z,28.8850,-90.0250,10.0,13.1,303.0,16.1,'11111222,11111222,11111222' 
LOOP,urn:ioos:station:wmo:lopl1:1,2012-10-01T13:59:00Z,28.8850,-90.0250,10.0,13.1,292.0,15.5,'11111222,11111222,11111222' 
LOOP,urn:ioos:station:wmo:lopl1:1,2012-10-01T14:19:00Z,28.8850,-90.0250,10.0,12.0,300.0,15.0,'11111222,11111222,11111222' 
LOOP,urn:ioos:station:wmo:lopl1:1,2012-10-01T14:34:00Z,28.8850,-90.0250,10.0,13.3,304.0,16.7,'11111222,11111222,11111222' 
LOOP,urn:ioos:station:wmo:lopl1:1,2012-10-01T14:49:00Z,28.8850,-90.0250,10.0,13.5,305.0,16.4,'11111222,11111222,11111222' 
LOOP,urn:ioos:station:wmo:lopl1:1,2012-10-01T15:04:00Z,28.8850,-90.0250,10.0,14.2,303.0,16.8,'11111222,11111222,11111222' 
LOOP,urn:ioos:station:wmo:lopl1:1,2012-10-01T15:19:00Z,28.8850,-90.0250,10.0,13.6,306.0,16.8,'11111222,11111222,11111222' 
LOOP,urn:ioos:station:wmo:lopl1:1,2012-10-01T15:34:00Z,28.8850,-90.0250,10.0,14.3,300.0,16.8,'11111222,11111222,11111222' 
LOOP,urn:ioos:station:wmo:lopl1:1,2012-10-01T15:49:00Z,28.8850,-90.0250,10.0,14.6,303.0,16.9,'11111222,11111222,11111222' 
LOOP,urn:ioos:station:wmo:lopl1:1,2012-10-01T16:04:00Z,28.8850,-90.0250,10.0,14.1,307.0,17.0,'11111222,11111222,11111222' 
LOOP,urn:ioos:station:wmo:lopl1:1,2012-10-01T16:19:00Z,28.8850,-90.0250,10.0,14.9,299.0,18.3,'11111222,11111222,11111222' 
LOOP,urn:ioos:station:wmo:lopl1:1,2012-10-01T16:34:00Z,28.8850,-90.0250,10.0,15.0,301.0,18.2,'11111222,11111222,11111222' 
LOOP,urn:ioos:station:wmo:lopl1:1,2012-10-01T16:49:00Z,28.8850,-90.0250,10.0,12.3,288.0,15.6,'11111222,11111222,11111222' 
LOOP,urn:ioos:station:wmo:lopl1:1,2012-10-01T17:04:00Z,28.8850,-90.0250,10.0,11.8,288.0,14.1,'11111222,11111222,11111222' 
LOOP,urn:ioos:station:wmo:lopl1:1,2012-10-01T17:19:00Z,28.8850,-90.0250,10.0,11.7,290.0,14.3,'11111222,11111222,11111222' 
LOOP,urn:ioos:station:wmo:lopl1:1,2012-10-01T17:34:00Z,28.8850,-90.0250,10.0,10.9,284.0,14.9,'11111222,11111222,11111222' 
LOOP,urn:ioos:station:wmo:lopl1:1,2012-10-01T17:49:00Z,28.8850,-90.0250,10.0,10.6,282.0,12.7,'11111222,11111222,11111222' 
LOOP,urn:ioos:station:wmo:lopl1:1,2012-10-01T18:04:00Z,28.8850,-90.0250,10.0,11.3,296.0,14.2,'11111222,11111222,11111222' 
LOOP,urn:ioos:station:wmo:lopl1:1,2012-10-01T18:19:00Z,28.8850,-90.0250,10.0,10.3,297.0,12.5,'11111222,11111222,11111222' 
LOOP,urn:ioos:station:wmo:lopl1:1,2012-10-01T18:34:00Z,28.8850,-90.0250,10.0,9.8,300.0,11.9,'11111222,11111222,11111222' 
LOOP,urn:ioos:station:wmo:lopl1:1,2012-10-01T18:49:00Z,28.8850,-90.0250,10.0,10.8,298.0,12.9,'11111222,11111222,11111222' 
LOOP,urn:ioos:station:wmo:lopl1:1,2012-10-01T19:04:00Z,28.8850,-90.0250,10.0,10.0,302.0,12.8,'11111222,11111222,11111222' 
LOOP,urn:ioos:station:wmo:lopl1:1,2012-10-01T19:19:00Z,28.8850,-90.0250,10.0,11.3,306.0,13.9,'11111222,11111222,11111222' 
LOOP,urn:ioos:station:wmo:lopl1:1,2012-10-01T19:34:00Z,28.8850,-90.0250,10.0,10.4,309.0,12.7,'11111222,11111222,11111222' 
LOOP,urn:ioos:station:wmo:lopl1:1,2012-10-01T19:49:00Z,28.8850,-90.0250,10.0,9.5,305.0,12.0,'11111222,11111222,11111222' 
LOOP,urn:ioos:station:wmo:lopl1:1,2012-10-01T20:04:00Z,28.8850,-90.0250,10.0,9.0,290.0,11.5,'11111222,11111222,11111222' 
LOOP,urn:ioos:station:wmo:lopl1:1,2012-10-01T20:19:00Z,28.8850,-90.0250,10.0,9.6,300.0,11.5,'11111222,11111222,11111222' 
LOOP,urn:ioos:station:wmo:lopl1:1,2012-10-01T20:39:00Z,28.8850,-90.0250,10.0,8.0,285.0,10.0,'11111222,11111222,11111222' 
LOOP,urn:ioos:station:wmo:lopl1:1,2012-10-01T20:54:00Z,28.8850,-90.0250,10.0,10.2,290.0,12.1,'11111222,11111222,11111222' 
LOOP,urn:ioos:station:wmo:lopl1:1,2012-10-01T21:09:00Z,28.8850,-90.0250,10.0,9.0,306.0,12.6,'11111222,11111222,11111222' 
LOOP,urn:ioos:station:wmo:lopl1:1,2012-10-01T21:24:00Z,28.8850,-90.0250,10.0,10.1,295.0,12.2,'11111222,11111222,11111222' 
LOOP,urn:ioos:station:wmo:lopl1:1,2012-10-01T21:39:00Z,28.8850,-90.0250,10.0,11.3,304.0,13.7,'11111222,11111222,11111222' 
LOOP,urn:ioos:station:wmo:lopl1:1,2012-10-01T21:54:00Z,28.8850,-90.0250,10.0,10.5,296.0,13.1,'11111222,11111222,11111222' 
LOOP,urn:ioos:station:wmo:lopl1:1,2012-10-01T22:09:00Z,28.8850,-90.0250,10.0,12.1,309.0,14.6,'11111222,11111222,11111222' 
LOOP,urn:ioos:station:wmo:lopl1:1,2012-10-01T22:24:00Z,28.8850,-90.0250,10.0,12.4,302.0,15.6,'11111222,11111222,11111222' 
LOOP,urn:ioos:station:wmo:lopl1:1,2012-10-01T22:39:00Z,28.8850,-90.0250,10.0,12.6,311.0,14.8,'11111222,11111222,11111222' 
LOOP,urn:ioos:station:wmo:lopl1:1,2012-10-01T22:54:00Z,28.8850,-90.0250,10.0,10.2,309.0,13.7,'11111222,11111222,11111222' 
LOOP,urn:ioos:station:wmo:lopl1:1,2012-10-01T23:09:00Z,28.8850,-90.0250,10.0,14.5,306.0,16.8,'11111222,11111222,11111222' 
LOOP,urn:ioos:station:wmo:lopl1:1,2012-10-01T23:24:00Z,28.8850,-90.0250,10.0,12.5,320.0,15.5,'11111222,11111222,11111222' 
LOOP,urn:ioos:station:wmo:lopl1:1,2012-10-01T23:39:00Z,28.8850,-90.0250,10.0,11.1,313.0,13.6,'11111222,11111222,11111222' 
LOOP,urn:ioos:station:wmo:lopl1:1,2012-10-01T23:54:00Z,28.8850,-90.0250,10.0,9.0,314.0,12.8,'11111222,11111222,11111222' 
LOOP,urn:ioos:station:wmo:lopl1:1,2012-10-02T00:09:00Z,28.8850,-90.0250,10.0,10.8,315.0,15.1,'11111222,11111222,11111222' 
LOOP,urn:ioos:station:wmo:lopl1:1,2012-10-02T00:24:00Z,28.8850,-90.0250,10.0,12.0,319.0,14.9,'11111222,11111222,11111222' 
LOOP,urn:ioos:station:wmo:lopl1:1,2012-10-02T00:39:00Z,28.8850,-90.0250,10.0,10.6,321.0,14.2,'11111222,11111222,11111222' 
LOOP,urn:ioos:station:wmo:lopl1:1,2012-10-02T00:54:00Z,28.8850,-90.0250,10.0,9.6,319.0,14.4,'11111222,11111222,11111222' 
LOOP,urn:ioos:station:wmo:lopl1:1,2012-10-02T01:09:00Z,28.8850,-90.0250,10.0,9.9,316.0,13.7,'11111222,11111222,11111222' 
LOOP,urn:ioos:station:wmo:lopl1:1,2012-10-02T01:24:00Z,28.8850,-90.0250,10.0,9.9,314.0,13.3,'11111222,11111222,11111222' 
LOOP,urn:ioos:station:wmo:lopl1:1,2012-10-02T01:39:00Z,28.8850,-90.0250,10.0,8.8,316.0,11.9,'11111222,11111222,11111222' 
LOOP,urn:ioos:station:wmo:lopl1:1,2012-10-02T01:54:00Z,28.8850,-90.0250,10.0,7.3,322.0,10.6,'11111222,11111222,11111222' 
LOOP,urn:ioos:station:wmo:lopl1:1,2012-10-02T02:09:00Z,28.8850,-90.0250,10.0,7.8,324.0,11.7,'11111222,11111222,11111222' 
LOOP,urn:ioos:station:wmo:lopl1:1,2012-10-02T02:24:00Z,28.8850,-90.0250,10.0,6.1,336.0,8.3,'11111222,11111222,11111222' 
LOOP,urn:ioos:station:wmo:lopl1:1,2012-10-02T02:39:00Z,28.8850,-90.0250,10.0,5.6,328.0,8.6,'11111222,11111222,11111222' 
LOOP,urn:ioos:station:wmo:lopl1:1,2012-10-02T02:59:00Z,28.8850,-90.0250,10.0,6.8,337.0,9.0,'11111222,11111222,11111222' 
LOOP,urn:ioos:station:wmo:lopl1:1,2012-10-02T03:19:00Z,28.8850,-90.0250,10.0,6.9,328.0,8.6,'11111222,11111222,11111222' 
LOOP,urn:ioos:station:wmo:lopl1:1,2012-10-02T03:34:00Z,28.8850,-90.0250,10.0,5.7,328.0,7.7,'11111222,11111222,11111222' 
LOOP,urn:ioos:station:wmo:lopl1:1,2012-10-02T03:49:00Z,28.8850,-90.0250,10.0,6.4,315.0,9.8,'11111222,11111222,11111222' 
LOOP,urn:ioos:station:wmo:lopl1:1,2012-10-02T04:04:00Z,28.8850,-90.0250,10.0,7.0,325.0,10.7,'11111222,11111222,11111222' 
LOOP,urn:ioos:station:wmo:lopl1:1,2012-10-02T04:19:00Z,28.8850,-90.0250,10.0,6.9,321.0,10.1,'11111222,11111222,11111222' 
LOOP,urn:ioos:station:wmo:lopl1:1,2012-10-02T04:34:00Z,28.8850,-90.0250,10.0,6.0,327.0,8.2,'11111222,11111222,11111222' 
LOOP,urn:ioos:station:wmo:lopl1:1,2012-10-02T04:49:00Z,28.8850,-90.0250,10.0,6.2,338.0,8.5,'11111222,11111222,11111222' 
LOOP,urn:ioos:station:wmo:lopl1:1,2012-10-02T05:04:00Z,28.8850,-90.0250,10.0,6.7,334.0,9.0,'11111222,11111222,11111222' 
LOOP,urn:ioos:station:wmo:lopl1:1,2012-10-02T05:19:00Z,28.8850,-90.0250,10.0,5.3,336.0,7.4,'11111222,11111222,11111222' 
LOOP,urn:ioos:station:wmo:lopl1:1,2012-10-02T05:34:00Z,28.8850,-90.0250,10.0,5.1,316.0,7.7,'11111222,11111222,11111222' 
LOOP,urn:ioos:station:wmo:lopl1:1,2012-10-02T05:49:00Z,28.8850,-90.0250,10.0,6.4,330.0,7.8,'11111222,11111222,11111222' 
LOOP,urn:ioos:station:wmo:lopl1:1,2012-10-02T06:04:00Z,28.8850,-90.0250,10.0,5.5,315.0,8.5,'11111222,11111222,11111222' 
LOOP,urn:ioos:station:wmo:lopl1:1,2012-10-02T06:19:00Z,28.8850,-90.0250,10.0,5.4,325.0,7.3,'11111222,11111222,11111222' 
LOOP,urn:ioos:station:wmo:lopl1:1,2012-10-02T06:34:00Z,28.8850,-90.0250,10.0,4.4,325.0,6.5,'11111222,11111222,11111222' 
LOOP,urn:ioos:station:wmo:lopl1:1,2012-10-02T06:49:00Z,28.8850,-90.0250,10.0,5.5,335.0,7.2,'11111222,11111222,11111222' 
LOOP,urn:ioos:station:wmo:lopl1:1,2012-10-02T07:04:00Z,28.8850,-90.0250,10.0,4.9,330.0,7.7,'11111222,11111222,11111222' 
LOOP,urn:ioos:station:wmo:lopl1:1,2012-10-02T07:19:00Z,28.8850,-90.0250,10.0,4.8,333.0,7.0,'11111222,11111222,11111222' 
LOOP,urn:ioos:station:wmo:lopl1:1,2012-10-02T07:34:00Z,28.8850,-90.0250,10.0,4.6,317.0,6.7,'11111222,11111222,11111222' 
LOOP,urn:ioos:station:wmo:lopl1:1,2012-10-02T07:49:00Z,28.8850,-90.0250,10.0,4.3,334.0,6.6,'11111222,11111222,11111222' 
LOOP,urn:ioos:station:wmo:lopl1:1,2012-10-02T08:04:00Z,28.8850,-90.0250,10.0,5.1,343.0,7.1,'11111222,11111222,11111222' 
LOOP,urn:ioos:station:wmo:lopl1:1,2012-10-02T08:19:00Z,28.8850,-90.0250,10.0,4.2,317.0,7.6,'11111222,11111222,11111222' 
LOOP,urn:ioos:station:wmo:lopl1:1,2012-10-02T08:34:00Z,28.8850,-90.0250,10.0,4.6,329.0,7.5,'11111222,11111222,11111222' 
LOOP,urn:ioos:station:wmo:lopl1:1,2012-10-02T08:54:00Z,28.8850,-90.0250,10.0,3.7,340.0,5.6,'11111222,11111222,11111222' 
LOOP,urn:ioos:station:wmo:lopl1:1,2012-10-02T09:09:00Z,28.8850,-90.0250,10.0,3.2,335.0,5.0,'11111222,11111222,11111222' 
LOOP,urn:ioos:station:wmo:lopl1:1,2012-10-02T09:24:00Z,28.8850,-90.0250,10.0,3.3,334.0,5.4,'11111222,11111222,11111222' 
LOOP,urn:ioos:station:wmo:lopl1:1,2012-10-02T09:39:00Z,28.8850,-90.0250,10.0,3.6,353.0,6.6,'11111222,11111222,11111222' 
LOOP,urn:ioos:station:wmo:lopl1:1,2012-10-02T09:54:00Z,28.8850,-90.0250,10.0,3.4,341.0,5.7,'11111222,11111222,11111222' 
LOOP,urn:ioos:station:wmo:lopl1:1,2012-10-02T10:09:00Z,28.8850,-90.0250,10.0,3.7,335.0,5.6,'11111222,11111222,11111222' 
LOOP,urn:ioos:station:wmo:lopl1:1,2012-10-02T10:24:00Z,28.8850,-90.0250,10.0,3.5,330.0,5.7,'11111222,11111222,11111222' 
LOOP,urn:ioos:station:wmo:lopl1:1,2012-10-02T10:39:00Z,28.8850,-90.0250,10.0,3.7,329.0,5.4,'11111222,11111222,11111222' 
LOOP,urn:ioos:station:wmo:lopl1:1,2012-10-02T10:54:00Z,28.8850,-90.0250,10.0,3.8,320.0,6.1,'11111222,11111222,11111222' 
LOOP,urn:ioos:station:wmo:lopl1:1,2012-10-02T11:09:00Z,28.8850,-90.0250,10.0,4.2,328.0,6.5,'11111222,11111222,11111222' 
LOOP,urn:ioos:station:wmo:lopl1:1,2012-10-02T11:24:00Z,28.8850,-90.0250,10.0,3.5,323.0,6.1,'11111222,11111222,11111222' 
LOOP,urn:ioos:station:wmo:lopl1:1,2012-10-02T11:39:00Z,28.8850,-90.0250,10.0,3.1,325.0,5.9,'11111222,11111222,11111222' 
LOOP,urn:ioos:station:wmo:lopl1:1,2012-10-02T11:54:00Z,28.8850,-90.0250,10.0,3.0,335.0,5.7,'11111222,11111222,11111222' 
LOOP,urn:ioos:station:wmo:lopl1:1,2012-10-02T12:09:00Z,28.8850,-90.0250,10.0,3.8,326.0,6.2,'11111222,11111222,11111222' 
LOOP,urn:ioos:station:wmo:lopl1:1,2012-10-02T12:24:00Z,28.8850,-90.0250,10.0,3.2,331.0,6.1,'11111222,11111222,11111222' 
LOOP,urn:ioos:station:wmo:lopl1:1,2012-10-02T12:39:00Z,28.8850,-90.0250,10.0,3.1,339.0,5.2,'11111222,11111222,11111222' 
LOOP,urn:ioos:station:wmo:lopl1:1,2012-10-02T12:54:00Z,28.8850,-90.0250,10.0,2.5,349.0,4.1,'11111222,11111222,11111222' 
LOOP,urn:ioos:station:wmo:lopl1:1,2012-10-02T13:09:00Z,28.8850,-90.0250,10.0,2.2,330.0,3.7,'11111222,11111222,11111222' 
LOOP,urn:ioos:station:wmo:lopl1:1,2012-10-02T13:24:00Z,28.8850,-90.0250,10.0,2.9,13.0,5.1,'11111222,11111222,11111222' 
LOOP,urn:ioos:station:wmo:lopl1:1,2012-10-02T13:39:00Z,28.8850,-90.0250,10.0,2.1,35.0,3.2,'11111222,11111222,11111222' 
LOOP,urn:ioos:station:wmo:lopl1:1,2012-10-02T13:54:00Z,28.8850,-90.0250,10.0,2.3,8.0,4.0,'11111222,11111222,11111222' 
LOOP,urn:ioos:station:wmo:lopl1:1,2012-10-02T14:24:00Z,28.8850,-90.0250,10.0,1.9,330.0,3.4,'11111222,11111222,11111222' 
LOOP,urn:ioos:station:wmo:lopl1:1,2012-10-02T14:39:00Z,28.8850,-90.0250,10.0,1.2,352.0,1.8,'11111222,11111222,11111222' 
LOOP,urn:ioos:station:wmo:lopl1:1,2012-10-02T14:54:00Z,28.8850,-90.0250,10.0,1.6,14.0,3.5,'11111222,11111222,11111222' 
LOOP,urn:ioos:station:wmo:lopl1:1,2012-10-02T15:09:00Z,28.8850,-90.0250,10.0,1.4,339.0,2.1,'11111222,11111222,11111222' 
LOOP,urn:ioos:station:wmo:lopl1:1,2012-10-02T15:29:00Z,28.8850,-90.0250,10.0,1.8,45.0,2.6,'11111222,11111222,11111222' 
LOOP,urn:ioos:station:wmo:lopl1:1,2012-10-02T15:44:00Z,28.8850,-90.0250,10.0,1.5,18.0,2.1,'11111222,11111222,11111222' 
LOOP,urn:ioos:station:wmo:lopl1:1,2012-10-02T15:59:00Z,28.8850,-90.0250,10.0,1.7,13.0,2.9,'11111222,11111222,11111222' 
LOOP,urn:ioos:station:wmo:lopl1:1,2012-10-02T16:14:00Z,28.8850,-90.0250,10.0,1.4,6.0,2.3,'11111222,11111222,11111222' 
LOOP,urn:ioos:station:wmo:lopl1:1,2012-10-02T16:29:00Z,28.8850,-90.0250,10.0,0.9,272.0,2.0,'11111222,11111222,11111222' 
LOOP,urn:ioos:station:wmo:lopl1:1,2012-10-02T16:44:00Z,28.8850,-90.0250,10.0,1.5,0.0,3.3,'11111222,11111222,11111222' 
LOOP,urn:ioos:station:wmo:lopl1:1,2012-10-02T16:59:00Z,28.8850,-90.0250,10.0,1.1,299.0,2.3,'11111222,11111222,11111222' 
LOOP,urn:ioos:station:wmo:lopl1:1,2012-10-02T17:14:00Z,28.8850,-90.0250,10.0,1.1,349.0,2.3,'11111222,11111222,11111222' 
LOOP,urn:ioos:station:wmo:lopl1:1,2012-10-02T17:29:00Z,28.8850,-90.0250,10.0,1.3,343.0,1.9,'11111222,11111222,11111222' 
LOOP,urn:ioos:station:wmo:lopl1:1,2012-10-02T17:44:00Z,28.8850,-90.0250,10.0,1.0,68.0,1.8,'11111222,11111222,11111222' 
LOOP,urn:ioos:station:wmo:lopl1:1,2012-10-02T17:59:00Z,28.8850,-90.0250,10.0,1.3,48.0,2.0,'11111222,11111222,11111222' 
LOOP,urn:ioos:station:wmo:lopl1:1,2012-10-02T18:14:00Z,28.8850,-90.0250,10.0,0.8,112.0,1.6,'11111222,11111222,11111222' 
LOOP,urn:ioos:station:wmo:lopl1:1,2012-10-02T18:29:00Z,28.8850,-90.0250,10.0,1.6,108.0,2.1,'11111222,11111222,11111222' 
LOOP,urn:ioos:station:wmo:lopl1:1,2012-10-02T18:44:00Z,28.8850,-90.0250,10.0,1.3,73.0,2.5,'11111222,11111222,11111222' 
LOOP,urn:ioos:station:wmo:lopl1:1,2012-10-02T18:59:00Z,28.8850,-90.0250,10.0,2.1,118.0,2.8,'11111222,11111222,11111222' 
LOOP,urn:ioos:station:wmo:lopl1:1,2012-10-02T19:14:00Z,28.8850,-90.0250,10.0,2.0,94.0,2.8,'11111222,11111222,11111222' 
LOOP,urn:ioos:station:wmo:lopl1:1,2012-10-02T19:29:00Z,28.8850,-90.0250,10.0,1.8,123.0,2.5,'11111222,11111222,11111222' 
LOOP,urn:ioos:station:wmo:lopl1:1,2012-10-02T19:44:00Z,28.8850,-90.0250,10.0,1.8,122.0,2.7,'11111222,11111222,11111222' 
LOOP,urn:ioos:station:wmo:lopl1:1,2012-10-02T19:59:00Z,28.8850,-90.0250,10.0,1.5,103.0,2.1,'11111222,11111222,11111222' 
LOOP,urn:ioos:station:wmo:lopl1:1,2012-10-02T20:14:00Z,28.8850,-90.0250,10.0,2.1,124.0,2.7,'11111222,11111222,11111222' 
LOOP,urn:ioos:station:wmo:lopl1:1,2012-10-02T20:29:00Z,28.8850,-90.0250,10.0,1.9,120.0,2.7,'11111222,11111222,11111222' 
LOOP,urn:ioos:station:wmo:lopl1:1,2012-10-02T20:49:00Z,28.8850,-90.0250,10.0,1.6,124.0,2.3,'11111222,11111222,11111222' 
LOOP,urn:ioos:station:wmo:lopl1:1,2012-10-02T21:04:00Z,28.8850,-90.0250,10.0,2.0,180.0,2.9,'11111222,11111222,11111222' 
LOOP,urn:ioos:station:wmo:lopl1:1,2012-10-02T21:19:00Z,28.8850,-90.0250,10.0,1.5,114.0,2.4,'11111222,11111222,11111222' 
LOOP,urn:ioos:station:wmo:lopl1:1,2012-10-02T21:34:00Z,28.8850,-90.0250,10.0,1.6,146.0,2.4,'11111222,11111222,11111222' 
LOOP,urn:ioos:station:wmo:lopl1:1,2012-10-02T21:49:00Z,28.8850,-90.0250,10.0,1.3,122.0,1.8,'11111222,11111222,11111222' 
LOOP,urn:ioos:station:wmo:lopl1:1,2012-10-02T22:04:00Z,28.8850,-90.0250,10.0,2.0,148.0,2.9,'11111222,11111222,11111222' 
LOOP,urn:ioos:station:wmo:lopl1:1,2012-10-02T22:19:00Z,28.8850,-90.0250,10.0,1.8,125.0,2.6,'11111222,11111222,11111222' 
LOOP,urn:ioos:station:wmo:lopl1:1,2012-10-02T22:34:00Z,28.8850,-90.0250,10.0,1.9,130.0,2.6,'11111222,11111222,11111222' 
LOOP,urn:ioos:station:wmo:lopl1:1,2012-10-02T22:49:00Z,28.8850,-90.0250,10.0,1.1,108.0,1.7,'11111222,11111222,11111222' 
LOOP,urn:ioos:station:wmo:lopl1:1,2012-10-02T23:04:00Z,28.8850,-90.0250,10.0,2.0,116.0,2.7,'11111222,11111222,11111222' 
LOOP,urn:ioos:station:wmo:lopl1:1,2012-10-02T23:19:00Z,28.8850,-90.0250,10.0,2.1,122.0,2.6,'11111222,11111222,11111222' 
LOOP,urn:ioos:station:wmo:lopl1:1,2012-10-02T23:34:00Z,28.8850,-90.0250,10.0,1.6,143.0,2.6,'11111222,11111222,11111222' 
LOOP,urn:ioos:station:wmo:lopl1:1,2012-10-02T23:49:00Z,28.8850,-90.0250,10.0,1.7,155.0,3.0,'11111222,11111222,11111222' 
LOOP,urn:ioos:station:wmo:lopl1:1,2012-10-03T00:04:00Z,28.8850,-90.0250,10.0,2.1,147.0,2.8,'11111222,11111222,11111222' 
LOOP,urn:ioos:station:wmo:lopl1:1,2012-10-03T00:19:00Z,28.8850,-90.0250,10.0,2.0,145.0,2.8,'11111222,11111222,11111222' 
LOOP,urn:ioos:station:wmo:lopl1:1,2012-10-03T00:34:00Z,28.8850,-90.0250,10.0,2.5,134.0,2.9,'11111222,11111222,11111222' 
LOOP,urn:ioos:station:wmo:lopl1:1,2012-10-03T00:49:00Z,28.8850,-90.0250,10.0,2.5,132.0,3.8,'11111222,11111222,11111222' 
LOOP,urn:ioos:station:wmo:lopl1:1,2012-10-03T01:04:00Z,28.8850,-90.0250,10.0,1.9,133.0,2.9,'11111222,11111222,11111222' 
LOOP,urn:ioos:station:wmo:lopl1:1,2012-10-03T01:19:00Z,28.8850,-90.0250,10.0,2.7,143.0,3.5,'11111222,11111222,11111222' 
LOOP,urn:ioos:station:wmo:lopl1:1,2012-10-03T01:34:00Z,28.8850,-90.0250,10.0,2.0,149.0,2.9,'11111222,11111222,11111222' 